Flag for Germany Weather past 2 weeks in Fürth, Bavaria, Germany

59 °F

Passing clouds.

Feels Like: 60 °F
Forecast: 53 / 61 °F
Wind: 3 mph from Southeast

Location: Nuernberg

Current Time: Oct 6, 2015 at 9:11:10 PM

Latest Report: Oct 6, 2015 at 8:20 PM

Visibility: N/A

Pressure: 29.77 "Hg

Humidity: 94%

Dew point: 57 °F

Location of FürthLocation

Historic Weather in Fürth — Graph


Fürth temperature yesterday

Maximum temperature yesterday: 66 °F (at 4:20 PM)
Minimum temperature yesterday: 50 °F (at 6:50 AM)
Average temperature yesterday: 56 °F

Past Weeks' High & Low Weather Summary

High70 °F (Oct 2, 2:50 PM)100% (Sep 22, 10:50 PM)30.57 "Hg (Sep 22, 10:50 PM)
Low34 °F (Oct 2, 7:50 AM)30% (Oct 2, 2:20 PM)29.65 "Hg (Sep 22, 4:50 PM)
Average54 °F73%30.16 "Hg
* Reported Sep 21 7:20 PM — Oct 6 7:50 PM, Fürth, Weather by CustomWeather, © 2015

Note: Actual official high and low records may vary slightly from our data, if they occured in-between our weather recording intervals... More about our weather records


Fürth weather history for previous 24 hours

Time TempWeatherWind HumidityBarometerVisibility
7:50 PM
Tue, Oct 6
59 °FLight rain. Passing clouds.2 mph94%29.77 "Hg5 mi
7:20 PM59 °FRain. Partly sunny.1 mph94%29.77 "Hg3 mi
6:50 PM59 °FSprinkles. Broken clouds.8 mph94%29.77 "Hg6 mi
6:20 PM66 °FThundershowers. Broken clouds.5 mph78%29.74 "HgN/A
5:50 PM68 °FBroken clouds.8 mph73%29.71 "HgN/A
5:20 PM68 °FPartly sunny.8 mph73%29.71 "HgN/A
4:50 PM70 °FBroken clouds.7 mph69%29.71 "HgN/A
4:20 PM70 °FBroken clouds.8 mph69%29.71 "HgN/A
3:50 PM70 °FBroken clouds.7 mph69%29.71 "HgN/A
3:20 PM70 °FPartly sunny.7 mph69%29.71 "HgN/A
2:50 PM70 °FPartly sunny.6 mph69%29.71 "HgN/A
2:20 PM70 °FScattered clouds.6 mph69%29.74 "HgN/A
1:50 PM70 °FScattered clouds.7 mph69%29.74 "HgN/A
1:20 PM68 °FPartly sunny.7 mph69%29.74 "HgN/A
12:50 PM66 °FPartly sunny.5 mph73%29.74 "HgN/A
12:20 PM64 °FScattered clouds.5 mph78%29.77 "HgN/A
11:50 AM64 °FScattered clouds.8 mph78%29.77 "HgN/A
11:20 AM61 °FBroken clouds.7 mph83%29.77 "HgN/A
10:50 AM61 °FPartly sunny.7 mph83%29.77 "HgN/A
10:20 AM59 °FScattered clouds.9 mph88%29.77 "HgN/A
9:50 AM59 °FPassing clouds.6 mph88%29.77 "HgN/A
9:20 AM55 °FPassing clouds.7 mph94%29.77 "HgN/A
8:50 AM54 °FScattered clouds.6 mph94%29.77 "Hg5 mi
8:20 AM54 °FPartly cloudy.5 mph100%29.77 "Hg5 mi
7:50 AM54 °FPassing clouds.5 mph94%29.80 "Hg5 mi
7:20 AM54 °FPassing clouds.5 mph94%29.80 "Hg4 mi
6:20 AM54 °FLight rain. Passing clouds.6 mph94%29.80 "Hg3 mi
5:50 AM54 °FLight rain. Passing clouds.5 mph94%29.80 "Hg5 mi
5:20 AM52 °FLight rain. Passing clouds.7 mph100%29.80 "Hg3 mi
4:50 AM52 °FRain. Passing clouds.5 mph94%29.80 "Hg2 mi
4:20 AM52 °FRain. Passing clouds.6 mph94%29.80 "Hg3 mi
3:50 AM52 °FRain. Passing clouds.6 mph94%29.83 "Hg3 mi
3:20 AM54 °FLight rain. Clear.5 mph88%29.83 "HgN/A
2:50 AM54 °FLight rain. Clear.3 mph88%29.83 "HgN/A
2:20 AM52 °FLight rain. Clear.6 mph94%29.83 "HgN/A
1:50 AM52 °FClear.6 mph88%29.83 "Hg10 mi
1:20 AM52 °FLight rain. Clear.6 mph88%29.86 "HgN/A
12:50 AM52 °FLight rain. Clear.3 mph82%29.86 "HgN/A
12:20 AM54 °FClear.3 mph77%29.86 "Hg10 mi
11:50 PM
Mon, Oct 5
54 °FPassing clouds.6 mph77%29.86 "HgN/A
11:20 PM54 °FClear.6 mph82%29.86 "Hg10 mi
10:50 PM54 °FPassing clouds.5 mph82%29.86 "HgN/A
10:20 PM52 °FClear.6 mph88%29.89 "Hg10 mi
9:50 PM52 °FClear.5 mph88%29.89 "Hg10 mi
9:20 PM54 °FClear.6 mph82%29.89 "Hg10 mi
Weather by CustomWeather, © 2015

See weather overviewHow to use our weather pages